Other Public Products
Issued by NWS Charleston, SC

Current Version | Previous Version | Text Only | Print | Product List | Glossary Off
Versions: 1 2 3 4 5 6 7 8 9 10 11 12 13 14 15 16 17 18 19 20 21 22 23 24 25 26 27 28 29 30 31 32 33 34 35 36 37 38 39 40 41 42 43 44 45 46 47 48 49 50

484
FPUS82 KCHS 250312
OPUCHS

TEST...KCHS/KSAV Gateway Observations...TEST
National Weather Service Charleston SC
1100 PM EDT THU MAY 24 2018

NOTE: "fair" indicates few or no clouds below 12,000 feet with no
significant weather and/or obstructions to visibility.

SCZ050-WAZ558-NCZ071-TXZ119-213-PAZ071-DCZ001-FLZ074-172-MI076-
NYZ176-178-MAZ016-IL014-TNZ027-NJZ106-GAZ044-MD014-250400-

...Gateway Observations for Charleston International...

CITY           SKY/WX    TMP DP  RH WIND       PRES   REMARKS
Chas Airport   MOCLDY    74  73  97 E5        30.12S
Seattle        MOCLDY    66  53  63 W5        30.02S
Charlotte      MOCLDY    73  68  84 SE6       30.16S
Dallas DFW     PTCLDY    81  67  62 SE7       29.98R
Dallas Love    PTCLDY    84  67  56 SE9       29.99R
Philladelphia  FAIR      67  50  54 SW5       30.13S
Wash National  FAIR      70  59  68 S7        30.15R
Baltimore      FAIR      63  52  67 CALM      30.14R
Miami          CLOUDY    79  74  84 E8        30.04R
Detroit        FAIR      69  51  52 S3        30.09S
Newark         FAIR      71  43  36 SW16G25   30.09R
Laguardia      FAIR      74  42  31 S12       30.08S
J F K          FAIR      62  54  74 SW6       30.11S
Boston Logan   FAIR      56  48  74 SW12      30.07S
Ft. Lauderdale MOCLDY    81  75  83 E13       30.04R
Chicago O`Hare FAIR      73  53  49 SE5       30.03R
Chicago Midway FAIR      75  54  47 SE7       30.03S
Houston Bush   FAIR      78  71  79 SE7       30.00R
Houston Hobby  FAIR      77  72  84 SE3       30.00R
Nashville      FAIR      79  63  57 N3        30.05S
Atlanta        MOCLDY    72  67  84 E13       30.11R

$$

GAZ044-118-TXZ119-213-NCZ071-DCZ001-MDZ014-506-PAZ021-071-NJZ106-
NYZ176-178-MAZ106-OHZ011-021-055-MIZ076-KYZ091-ILZ014-INZ047-
MNZ060-ONZ431-250400-

...Gateway Observations for Savannah International...

CITY           SKY/WX    TMP DP  RH WIND       PRES   REMARKS
Savannah Arpt  CLOUDY    74  73  97 CALM      30.11R
Atlanta        MOCLDY    72  67  84 E13       30.11R
Charlotte      MOCLDY    73  68  84 SE6       30.16S
Dallas DFW     PTCLDY    81  67  62 SE7       29.98R
Houston Bush   FAIR      78  71  79 SE7       30.00R
Wash National  FAIR      70  59  68 S7        30.15R
Wash Dulles    FAIR      69  54  58 S7        30.14S
Baltimore      FAIR      63  52  67 CALM      30.14R
Philadelphia   FAIR      67  50  54 SW5       30.13S
Newark         FAIR      71  43  36 SW16G25   30.09R
Laguardia      FAIR      74  42  31 S12       30.08S
J F K          FAIR      62  54  74 SW6       30.11S
Boston         FAIR      56  48  74 SW12      30.07S
Pittsburg      FAIR      68  53  58 CALM      30.12S
Akron          FAIR      69  49  48 S3        30.12F
Cleveland      FAIR      64  50  60 SE5       30.12S
Cincinnati     FAIR      68  54  60 S3        30.08S
Columbus       FAIR      65  55  69 MISG      30.09S
Detroit        FAIR      69  51  52 S3        30.09S
Chicago O`Hare FAIR      73  53  49 SE5       30.03R
Minneapolis    CLOUDY    70  66  87 SE14      29.89F
Indianapolis   FAIR      72  52  49 S5        30.07S
Toronto Canada MOCLDY    68  50  52 SW9       30.03F

$$




USA.gov is the U.S. government's official web portal to all federal, state and local government web resources and services.